Tracking 22124 objects as of 25-Jan-2021
HD Live streaming from Space Station
objects crossing your sky now

STARLINK-1760

Track STARLINK-1760 now!
10-day predictions
STARLINK-1760 is classified as:


NORAD ID: 46341
Int'l Code: 2020-062S
Perigee: 553.7 km
Apogee: 555.0 km
Inclination: 53.1 °
Period: 95.6 minutes
Semi major axis: 6925 km
RCS: Unknown
Launch date: September 3, 2020
Source: United States (US)
Launch site: AIR FORCE EASTERN TEST RANGE (AFETR)
aabbcc
Your satellite tracking list
Your tracking list is empty




NASA's NSSDC Master Catalog

Two Line Element Set (TLE):
1 46341U 20062S   21024.91667824 -.00032463  00000-0 -21702-2 0  9994
2 46341  53.0690 110.2824 0000898  97.5744 108.9393 15.06405053  1757
Source of the keplerian elements: AFSPC